period_start,C,m1,H,J0,J1,J2,J3,J4,J5,JA,JB,JC,JD,JJ,JK,JN,#
2016-02-01 00:02:08,0.18,6.61,0.00,14.09,18.42,22.37,15.00,50.99,1010.77,2066.70,1764.27,1822.92,2066.34,599.96,610.97,29.98,0000 0000 0000 0000 000000
2016-02-01 00:07:09,0.19,6.61,0.00,14.13,18.42,22.33,15.04,51.01,1010.79,2066.55,1762.61,1821.64,2064.88,600.05,610.97,30.03,0000 0000 0000 0000 000000
2016-02-01 00:12:10,0.18,6.62,0.00,14.12,18.42,22.36,15.08,50.96,1011.03,2066.41,1760.88,1820.39,2063.40,600.10,611.10,30.08,0000 0000 0000 0000 000000
2016-02-01 00:17:12,0.20,6.64,0.00,14.12,18.44,22.31,15.02,50.95,1011.23,2066.49,1759.30,1819.09,2061.90,599.93,611.22,30.13,0000 0000 0000 0000 000000
2016-02-01 00:22:13,0.24,6.64,0.00,14.13,18.44,22.35,15.02,50.93,1011.24,2066.52,1757.52,1817.78,2060.51,600.20,611.43,30.18,0000 0000 0000 0000 000000
2016-02-01 00:27:14,0.17,6.66,0.00,14.14,18.44,22.35,14.97,50.92,1011.25,2066.49,1755.76,1816.52,2059.03,599.92,611.19,30.23,0000 0000 0000 0000 000000
2016-02-01 00:32:16,0.21,6.67,0.00,14.15,18.44,22.33,15.02,50.98,1011.26,2066.65,1754.21,1815.43,2057.61,600.14,611.34,30.28,0000 0000 0000 0000 000000
2016-02-01 00:37:17,0.17,6.68,0.00,14.13,18.44,22.39,14.99,51.05,1011.26,2066.52,1752.58,1814.27,2056.21,600.22,611.41,30.33,0000 0000 0000 0000 000000
2016-02-01 00:42:18,0.22,6.69,0.00,14.17,18.45,22.35,15.01,51.04,1011.27,2066.64,1750.91,1812.97,2054.72,600.00,611.29,30.38,0000 0000 0000 0000 000000
2016-02-01 00:47:20,0.15,6.69,0.00,14.19,18.46,22.36,15.00,51.06,1011.31,2066.37,1749.37,1811.73,2053.28,599.85,611.02,30.43,0000 0000 0000 0000 000000
2016-02-01 00:52:21,0.19,6.70,0.00,14.21,18.47,22.34,15.06,51.02,1011.29,2066.18,1747.68,1810.48,2051.75,600.19,611.44,30.48,0000 0000 0000 0000 000000
2016-02-01 00:57:22,0.18,6.71,0.00,14.24,18.47,22.39,15.00,51.14,1011.35,2066.07,1745.88,1809.16,2050.30,599.78,610.79,30.53,0000 0000 0000 0000 000000
2016-02-01 01:02:23,0.21,6.72,0.00,14.22,18.47,22.35,15.04,51.04,1011.56,2066.05,1744.20,1807.84,2048.78,599.95,611.15,30.58,0000 0000 0000 0000 000000
2016-02-01 01:07:25,0.21,6.74,0.00,14.21,18.48,22.44,15.02,51.13,1011.65,2066.04,1742.58,1806.54,2047.27,600.12,611.39,30.63,0000 0000 0000 0000 000000
2016-02-01 01:12:26,0.19,6.74,0.00,14.22,18.49,22.41,15.01,51.10,1011.68,2066.03,1740.84,1805.27,2046.04,600.35,611.57,30.68,0000 0000 0000 0000 000000
2016-02-01 01:17:27,0.19,6.75,0.00,14.19,18.49,22.39,15.00,51.02,1011.70,2066.02,1739.25,1803.96,2044.59,599.77,611.09,30.73,0000 0000 0000 0000 000000
2016-02-01 01:22:28,0.22,6.77,0.00,14.22,18.49,22.41,15.05,51.08,1011.71,2066.01,1737.51,1802.67,2043.10,599.77,611.03,30.78,0000 0000 0000 0000 000000
2016-02-01 01:27:30,0.17,6.77,0.00,14.24,18.49,22.43,15.02,51.17,1011.65,2066.00,1736.02,1801.52,2041.72,600.26,611.50,30.83,0000 0000 0000 0000 000000
2016-02-01 01:32:31,0.19,6.78,0.00,14.24,18.50,22.41,14.93,51.15,1011.73,2066.01,1734.54,1800.35,2040.37,599.89,611.09,30.88,0000 0000 0000 0000 000000
2016-02-01 01:37:32,0.21,6.80,0.00,14.27,18.51,22.38,15.02,51.02,1011.73,2066.00,1732.78,1799.04,2038.85,599.89,611.08,30.93,0000 0000 0000 0000 000000
2016-02-01 01:42:34,0.22,6.81,0.00,14.28,18.52,22.42,14.98,51.02,1011.74,2066.00,1730.92,1797.65,2037.34,600.01,611.19,30.98,0000 0000 0000 0000 000000
2016-02-01 01:47:35,0.19,6.82,0.00,14.29,18.52,22.45,14.99,51.06,1011.74,2066.00,1729.35,1796.41,2035.90,600.13,611.23,31.03,0000 0000 0000 0000 000000
2016-02-01 01:52:36,0.18,6.83,0.00,14.28,18.52,22.40,14.99,50.97,1011.73,2066.00,1727.84,1795.25,2034.50,600.03,611.17,31.08,0000 0000 0000 0000 000000
2016-02-01 01:57:37,0.18,6.84,0.00,14.24,18.52,22.47,15.02,51.00,1011.73,2066.01,1726.40,1794.00,2033.06,600.33,611.72,31.13,0000 0000 0000 0000 000000
2016-02-01 02:02:39,0.22,6.85,0.00,14.26,18.52,22.42,14.96,51.23,1011.74,2066.01,1724.72,1792.74,2031.67,599.98,611.22,31.18,0000 0000 0000 0000 000000
2016-02-01 02:07:40,0.18,6.86,0.00,14.26,18.53,22.42,15.06,51.08,1011.74,2066.00,1723.20,1791.63,2030.22,600.11,611.37,31.24,0000 0000 0000 0000 000000
2016-02-01 02:12:41,0.20,6.87,0.00,14.25,18.54,22.43,15.04,51.27,1011.73,2065.99,1721.66,1790.45,2028.78,599.93,611.25,31.28,0000 0000 0000 0000 000000
2016-02-01 02:17:43,0.18,6.88,0.00,14.27,18.54,22.47,15.10,51.18,1011.73,2065.99,1720.12,1789.25,2027.43,600.23,611.42,31.33,0000 0000 0000 0000 000000
2016-02-01 02:22:44,0.20,6.89,0.00,14.29,18.54,22.45,14.98,51.13,1011.73,2065.99,1718.59,1787.99,2025.94,599.78,610.98,31.38,0000 0000 0000 0000 000000
2016-02-01 02:27:46,0.21,6.90,0.00,14.28,18.54,22.43,14.99,51.16,1011.73,2065.99,1717.04,1786.70,2024.56,600.06,611.16,31.44,0000 0000 0000 0000 000000
2016-02-01 02:32:47,0.19,6.91,0.00,14.30,18.54,22.47,15.08,51.18,1011.73,2065.99,1715.49,1785.52,2023.14,600.33,611.31,31.49,0000 0000 0000 0000 000000
2016-02-01 02:37:48,0.23,6.92,0.00,14.29,18.54,22.45,15.01,51.02,1011.73,2065.99,1713.70,1784.13,2021.59,599.93,611.10,31.54,0000 0000 0000 0000 000000
2016-02-01 02:42:50,0.22,6.93,0.00,14.29,18.54,22.45,15.05,51.02,1011.75,2065.99,1711.99,1782.74,2019.99,600.24,611.39,31.59,0000 0000 0000 0000 000000
2016-02-01 02:47:51,0.21,6.94,0.00,14.29,18.54,22.43,15.00,51.04,1011.92,2065.98,1710.19,1781.47,2018.51,600.01,611.36,31.64,0000 0000 0000 0000 000000
2016-02-01 02:52:52,0.20,6.95,0.00,14.25,18.54,22.46,14.98,51.05,1012.04,2065.99,1708.51,1780.19,2017.05,599.98,611.42,31.69,0000 0000 0000 0000 000000
2016-02-01 02:57:54,0.23,6.96,0.00,14.24,18.54,22.45,15.12,51.04,1012.22,2065.98,1706.74,1778.87,2015.63,600.24,611.78,31.74,0000 0000 0000 0000 000000
2016-02-01 03:02:55,0.19,6.97,0.00,14.27,18.55,22.46,15.01,51.14,1012.22,2065.99,1705.21,1777.64,2014.09,600.10,611.71,31.79,0000 0000 0000 0000 000000
2016-02-01 03:07:56,0.21,6.98,0.00,14.28,18.55,22.47,15.03,51.13,1012.22,2065.99,1703.58,1776.43,2012.66,600.03,611.48,31.84,0000 0000 0000 0000 000000
2016-02-01 03:12:58,0.18,6.99,0.00,14.27,18.56,22.48,15.03,51.10,1012.22,2065.98,1701.94,1775.30,2011.39,600.01,611.52,31.89,0000 0000 0000 0000 000000
2016-02-01 03:17:59,0.18,7.00,0.00,14.26,18.57,22.44,15.10,51.23,1012.18,2065.99,1700.58,1774.06,2009.97,600.06,611.57,31.94,0000 0000 0000 0000 000000
2016-02-01 03:23:00,0.17,7.01,0.00,14.27,18.57,22.48,15.08,51.22,1012.09,2065.98,1699.26,1772.95,2008.64,600.12,611.44,31.99,0000 0000 0000 0000 000000
2016-02-01 03:28:02,0.21,7.02,0.00,14.27,18.57,22.47,15.05,51.05,1012.22,2065.99,1697.67,1771.78,2007.35,600.28,611.81,32.04,0000 0000 0000 0000 000000
2016-02-01 03:33:03,0.23,7.03,0.00,14.28,18.57,22.46,15.05,51.13,1012.22,2065.98,1695.88,1770.51,2005.76,600.16,611.71,32.09,0000 0000 0000 0000 000000
2016-02-01 03:38:04,0.19,7.04,0.00,14.25,18.57,22.50,15.07,51.13,1012.31,2065.98,1694.07,1769.19,2004.34,599.98,611.67,32.14,0000 0000 0000 0000 000000
2016-02-01 03:43:05,0.23,7.05,0.00,14.29,18.57,22.47,15.00,51.06,1012.33,2065.99,1692.21,1767.86,2002.81,599.77,611.42,32.19,0000 0000 0000 0000 000000
2016-02-01 03:48:07,0.22,7.06,0.00,14.28,18.57,22.48,14.99,51.13,1012.36,2065.98,1690.39,1766.52,2001.31,599.55,611.13,32.24,0000 0000 0000 0000 000000
2016-02-01 03:53:08,0.20,7.08,0.00,14.31,18.57,22.53,15.08,51.17,1012.60,2065.98,1688.74,1765.32,1999.90,600.00,611.58,32.29,0000 0000 0000 0000 000000
2016-02-01 03:58:09,0.19,7.09,0.00,14.29,18.57,22.45,14.98,51.06,1012.69,2065.98,1687.16,1764.02,1998.52,599.85,611.46,32.34,0000 0000 0000 0000 000000
2016-02-01 04:03:10,0.22,7.10,0.00,14.31,18.58,22.48,15.02,51.08,1012.70,2065.97,1685.55,1762.76,1997.00,600.03,611.81,32.39,0000 0000 0000 0000 000000
2016-02-01 04:08:12,0.17,7.11,0.00,14.33,18.59,22.48,15.01,51.17,1012.70,2065.98,1684.08,1761.69,1995.75,600.07,611.62,32.44,0000 0000 0000 0000 000000
2016-02-01 04:13:13,0.22,7.11,0.00,14.35,18.59,22.52,15.01,51.17,1012.64,2065.98,1682.53,1760.48,1994.35,599.77,611.34,32.49,0000 0000 0000 0000 000000
2016-02-01 04:18:14,0.20,7.13,0.00,14.34,18.59,22.51,15.05,51.32,1012.57,2065.97,1680.92,1759.15,1992.79,600.01,611.67,32.54,0000 0000 0000 0000 000000
2016-02-01 04:23:16,0.21,7.14,0.00,14.36,18.61,22.53,15.00,51.05,1012.69,2065.96,1679.30,1757.81,1991.43,600.26,611.87,32.59,0000 0000 0000 0000 000000
2016-02-01 04:28:17,0.22,7.15,0.00,14.34,18.62,22.53,15.05,51.15,1012.71,2065.91,1677.53,1756.51,1989.82,600.08,611.64,32.64,0000 0000 0000 0000 000000
2016-02-01 04:33:18,0.22,7.16,0.00,14.33,18.62,22.55,15.05,51.03,1012.71,2065.91,1675.58,1755.11,1988.29,600.00,611.64,32.69,0000 0000 0000 0000 000000
2016-02-01 04:38:20,0.26,7.17,0.00,14.30,18.62,22.56,15.07,51.17,1012.71,2065.95,1673.64,1753.72,1986.72,600.27,612.00,32.74,0000 0000 0000 0000 000000
2016-02-01 04:43:21,0.19,7.18,0.00,14.37,18.64,22.53,15.09,51.18,1012.74,2065.97,1672.03,1752.43,1985.30,600.09,611.79,32.79,0000 0000 0000 0000 000000
2016-02-01 04:48:22,0.18,7.19,0.00,14.39,18.64,22.53,15.04,51.23,1012.78,2065.95,1670.72,1751.33,1983.97,600.02,611.58,32.85,0000 0000 0000 0000 000000
2016-02-01 04:53:24,0.19,7.20,0.00,14.41,18.65,22.60,15.04,51.17,1012.76,2065.85,1669.12,1750.02,1982.65,599.92,611.32,32.90,0000 0000 0000 0000 000000
2016-02-01 04:58:25,0.17,7.21,0.00,14.43,18.67,22.61,14.96,51.17,1012.80,2065.73,1667.71,1748.84,1981.38,599.89,611.30,32.95,0000 0000 0000 0000 000000
2016-02-01 05:03:26,0.13,7.22,0.00,14.42,18.67,22.58,14.95,51.17,1013.07,2065.42,1666.44,1747.72,1980.01,599.90,611.52,33.00,0000 0000 0000 0000 000000
2016-02-01 05:08:27,0.20,7.23,0.00,14.42,18.68,22.62,15.15,51.25,1012.95,2065.14,1664.84,1746.50,1978.60,600.03,611.61,33.05,0000 0000 0000 0000 000000
2016-02-01 05:13:29,0.19,7.24,0.00,14.46,18.69,22.64,15.05,51.16,1013.04,2065.18,1663.24,1745.30,1977.19,600.08,611.51,33.10,0000 0000 0000 0000 000000
2016-02-01 05:18:30,0.22,7.25,0.00,14.45,18.69,22.63,15.08,51.17,1013.18,2065.13,1661.51,1744.00,1975.70,599.81,611.53,33.15,0000 0000 0000 0000 000000
2016-02-01 05:23:32,0.23,7.26,0.00,14.48,18.71,22.65,15.06,51.17,1013.20,2065.15,1659.81,1742.70,1974.23,600.22,611.87,33.20,0000 0000 0000 0000 000000
2016-02-01 05:28:33,0.19,7.27,0.00,14.46,18.72,22.62,15.04,51.16,1013.20,2065.07,1658.16,1741.47,1972.78,600.04,611.70,33.25,0000 0000 0000 0000 000000
2016-02-01 05:33:34,0.20,7.28,0.00,14.47,18.72,22.63,15.04,51.13,1013.20,2065.02,1656.62,1740.21,1971.40,599.84,611.43,33.30,0000 0000 0000 0000 000000
2016-02-01 05:38:35,0.21,7.29,0.00,14.48,18.73,22.67,15.07,51.13,1013.20,2065.02,1654.98,1738.90,1969.89,599.97,611.53,33.35,0000 0000 0000 0000 000000
2016-02-01 05:43:36,0.23,7.31,0.00,14.53,18.74,22.66,15.08,51.10,1013.20,2065.02,1653.21,1737.59,1968.40,600.18,611.85,33.40,0000 0000 0000 0000 000000
2016-02-01 05:48:38,0.21,7.32,0.00,14.51,18.74,22.68,15.01,51.07,1013.21,2065.02,1651.47,1736.30,1966.91,600.14,611.75,33.45,0000 0000 0000 0000 000000
2016-02-01 05:53:39,0.24,7.33,0.00,14.50,18.75,22.68,15.01,51.08,1013.35,2065.02,1649.68,1734.87,1965.43,599.84,611.60,33.50,0000 0000 0000 0000 000000
2016-02-01 05:58:40,0.20,7.34,0.00,14.54,18.77,22.69,15.07,51.13,1013.44,2065.00,1648.07,1733.66,1963.96,600.16,611.75,33.55,0000 0000 0000 0000 000000
2016-02-01 06:03:42,0.21,7.35,0.00,14.55,18.77,22.73,15.06,51.17,1013.64,2065.01,1646.62,1732.51,1962.62,600.08,611.77,33.60,0000 0000 0000 0000 000000
2016-02-01 06:08:43,0.18,7.36,0.00,14.54,18.77,22.68,14.98,51.16,1013.68,2065.00,1645.06,1731.28,1961.24,599.66,611.43,33.65,0000 0000 0000 0000 000000
2016-02-01 06:13:44,0.18,7.37,0.00,14.55,18.79,22.72,15.08,51.17,1013.69,2065.00,1643.80,1730.13,1959.88,600.00,611.76,33.71,0000 0000 0000 0000 000000
2016-02-01 06:18:45,0.24,7.38,0.00,14.56,18.79,22.66,15.04,51.23,1013.69,2065.00,1642.12,1728.82,1958.51,599.95,611.84,33.76,0000 0000 0000 0000 000000
2016-02-01 06:23:46,0.20,7.39,0.00,14.58,18.80,22.70,14.98,51.13,1013.69,2065.00,1640.52,1727.67,1957.01,600.02,611.66,33.81,0000 0000 0000 0000 000000
2016-02-01 06:28:48,0.19,7.40,0.00,14.60,18.81,22.79,14.99,51.23,1013.66,2065.00,1638.98,1726.59,1955.66,599.86,611.67,33.86,0000 0000 0000 0000 000000
2016-02-01 06:33:49,0.17,7.41,0.00,14.58,18.82,22.77,15.08,51.10,1013.67,2064.99,1637.77,1725.55,1954.42,600.03,611.72,33.91,0000 0000 0000 0000 000000
2016-02-01 06:38:50,0.19,7.42,0.00,14.60,18.82,22.74,15.04,51.20,1013.69,2064.99,1636.43,1724.39,1953.07,599.97,611.67,33.96,0000 0000 0000 0000 000000
2016-02-01 06:43:51,0.24,7.43,0.00,14.61,18.82,22.77,15.14,51.19,1013.69,2064.99,1634.65,1723.02,1951.54,600.30,611.96,34.01,0000 0000 0000 0000 000000
2016-02-01 06:48:53,0.25,7.44,0.00,14.64,18.83,22.76,15.00,51.10,1013.71,2064.97,1632.81,1721.65,1949.88,599.85,611.45,34.06,0000 0000 0000 0000 000000
2016-02-01 06:53:54,0.19,7.45,0.00,14.61,18.84,22.78,15.09,51.17,1013.88,2064.97,1631.24,1720.50,1948.57,600.02,611.87,34.11,0000 0000 0000 0000 000000
2016-02-01 06:58:55,0.20,7.47,0.00,14.64,18.84,22.77,15.00,51.09,1014.16,2064.95,1629.57,1719.28,1947.17,600.06,611.95,34.16,0000 0000 0000 0000 000000
2016-02-01 07:03:57,0.21,7.48,0.00,14.66,18.84,22.77,14.99,51.03,1014.17,2064.96,1627.95,1717.98,1945.71,599.81,611.58,34.21,0000 0000 0000 0000 000000
2016-02-01 07:08:58,0.20,7.49,0.00,14.67,18.85,22.77,15.05,51.04,1014.21,2064.96,1626.55,1716.83,1944.44,600.10,611.87,34.26,0000 0000 0000 0000 000000
2016-02-01 07:13:59,0.20,7.50,0.00,14.68,18.87,22.76,15.04,51.17,1014.18,2064.89,1624.94,1715.64,1943.04,599.99,611.79,34.31,0000 0000 0000 0000 000000
2016-02-01 07:19:01,0.21,7.51,0.00,14.69,18.87,22.82,14.89,51.18,1014.18,2064.90,1623.45,1714.50,1941.69,599.72,611.43,34.36,0000 0000 0000 0000 000000
2016-02-01 07:24:02,0.17,7.52,0.00,14.67,18.87,22.79,14.97,51.12,1014.19,2064.75,1621.94,1713.38,1940.37,600.00,611.82,34.41,0000 0000 0000 0000 000000
2016-02-01 07:29:04,0.27,7.53,0.00,14.66,18.88,22.80,15.02,51.15,1014.22,2064.74,1619.99,1711.93,1938.73,599.80,611.64,34.46,0000 0000 0000 0000 000000
2016-02-01 07:34:05,0.23,7.54,0.00,14.71,18.89,22.84,15.09,51.25,1014.31,2064.79,1618.16,1710.54,1937.27,600.21,612.10,34.51,0000 0000 0000 0000 000000
2016-02-01 07:39:06,0.17,7.55,0.00,14.72,18.89,22.83,15.03,51.16,1014.52,2064.70,1616.79,1709.49,1935.91,600.09,612.00,34.56,0000 0000 0000 0000 000000
2016-02-01 07:44:08,0.22,7.56,0.00,14.73,18.89,22.84,15.03,51.11,1014.47,2064.50,1614.89,1708.10,1934.47,600.11,611.92,34.62,0000 0000 0000 0000 000000
2016-02-01 07:49:09,0.18,7.57,0.00,14.74,18.91,22.82,14.98,51.15,1014.64,2064.44,1613.49,1706.88,1933.03,599.83,611.84,34.67,0000 0000 0000 0000 000000
2016-02-01 07:54:10,0.22,7.58,0.00,14.74,18.92,22.81,15.10,51.14,1014.66,2064.24,1611.87,1705.61,1931.58,600.18,612.19,34.72,0000 0000 0000 0000 000000
2016-02-01 07:59:12,0.17,7.59,0.00,14.73,18.92,22.85,15.06,51.18,1014.66,2064.12,1610.42,1704.47,1930.24,600.37,612.36,34.77,0000 0000 0000 0000 000000
2016-02-01 08:04:13,0.18,7.60,0.00,14.73,18.94,22.86,14.99,51.14,1014.66,2064.09,1608.99,1703.34,1928.88,599.88,611.86,34.82,0000 0000 0000 0000 000000
2016-02-01 08:09:14,0.21,7.61,0.00,14.72,18.94,22.88,14.99,51.05,1014.67,2064.08,1607.51,1702.16,1927.56,599.85,611.88,34.87,0000 0000 0000 0000 000000
2016-02-01 08:14:16,0.22,7.62,0.00,14.74,18.94,22.86,15.07,51.10,1014.71,2064.04,1605.81,1700.87,1926.18,600.14,612.16,34.92,0000 0000 0000 0000 000000
2016-02-01 08:19:18,0.21,7.63,0.00,14.75,18.95,22.87,15.01,51.12,1014.80,2064.04,1604.22,1699.70,1924.76,599.92,612.02,34.97,0000 0000 0000 0000 000000
2016-02-01 08:24:19,0.22,7.64,0.00,14.77,18.97,22.91,15.05,51.14,1014.79,2064.04,1602.64,1698.52,1923.45,599.94,612.02,35.02,0000 0000 0000 0000 000000
2016-02-01 08:29:20,0.20,7.65,0.00,14.77,18.97,22.94,15.00,51.14,1014.93,2064.05,1601.05,1697.34,1922.04,600.17,612.20,35.07,0000 0000 0000 0000 000000
2016-02-01 08:34:21,0.22,7.67,0.00,14.77,18.97,22.91,15.03,51.17,1015.08,2064.03,1599.40,1696.04,1920.59,600.16,612.29,35.12,0000 0000 0000 0000 000000
2016-02-01 08:39:23,0.19,7.68,0.00,14.78,18.99,22.89,15.09,51.24,1015.15,2064.02,1597.97,1694.80,1919.32,600.50,612.60,35.17,0000 0000 0000 0000 000000
2016-02-01 08:44:24,0.19,7.69,0.00,14.76,18.99,22.91,15.09,51.26,1015.15,2064.00,1596.69,1693.71,1918.03,599.94,612.16,35.22,0000 0000 0000 0000 000000
2016-02-01 08:49:25,0.16,7.69,0.00,14.78,18.99,22.90,15.09,51.13,1015.15,2064.01,1595.60,1692.73,1916.86,600.02,612.32,35.27,0000 0000 0000 0000 000000
2016-02-01 08:54:26,0.18,7.70,0.00,14.80,19.00,22.93,14.96,51.24,1015.15,2064.00,1594.42,1691.66,1915.64,599.52,611.66,35.32,0000 0000 0000 0000 000000
2016-02-01 08:59:28,0.21,7.71,0.00,14.84,19.01,22.92,15.02,51.09,1015.20,2064.00,1592.79,1690.51,1914.32,600.03,612.11,35.37,0000 0000 0000 0000 000000
2016-02-01 09:04:29,0.22,7.73,0.00,14.82,19.02,22.94,15.17,51.20,1015.36,2064.00,1591.06,1689.22,1912.81,600.15,612.35,35.42,0000 0000 0000 0000 000000
2016-02-01 09:09:31,0.22,7.74,0.00,14.79,19.02,22.98,15.10,51.17,1015.35,2064.00,1589.28,1687.94,1911.44,599.98,612.30,35.47,0000 0000 0000 0000 000000
2016-02-01 09:14:32,0.23,7.75,0.00,14.81,19.02,22.94,15.06,51.20,1015.47,2064.00,1587.59,1686.71,1909.98,599.82,612.08,35.53,0000 0000 0000 0000 000000
2016-02-01 09:19:33,0.19,7.76,0.00,14.81,19.02,22.93,15.06,51.25,1015.30,2064.00,1586.13,1685.53,1908.68,600.02,612.19,35.58,0000 0000 0000 0000 000000
2016-02-01 09:24:35,0.15,7.77,0.00,14.83,19.02,22.93,14.98,51.13,1015.27,2063.99,1585.23,1684.61,1907.57,599.76,611.89,35.63,0000 0000 0000 0000 000000
2016-02-01 09:29:36,0.16,7.78,0.00,14.83,19.04,23.00,15.09,51.09,1015.39,2063.99,1584.18,1683.62,1906.43,600.15,612.34,35.68,0000 0000 0000 0000 000000
2016-02-01 09:34:37,0.20,7.79,0.00,14.80,19.04,22.94,14.97,50.92,1015.60,2063.97,1582.69,1682.53,1905.06,600.22,612.70,35.73,0000 0000 0000 0000 000000
2016-02-01 09:39:39,0.22,7.80,0.00,14.81,19.04,22.91,14.94,50.98,1015.62,2063.97,1581.05,1681.30,1903.70,599.82,612.20,35.78,0000 0000 0000 0000 000000
2016-02-01 09:44:40,0.20,7.81,0.00,14.85,19.04,22.94,14.95,51.13,1015.52,2063.98,1579.51,1680.12,1902.44,599.70,611.99,35.83,0000 0000 0000 0000 000000
2016-02-01 09:49:41,0.21,7.82,0.00,14.84,19.04,22.96,15.06,51.15,1015.58,2063.96,1577.86,1678.93,1901.03,599.76,612.15,35.88,0000 0000 0000 0000 000000
2016-02-01 09:54:43,0.21,7.83,0.00,14.82,19.04,22.95,15.07,51.13,1015.63,2063.96,1576.39,1677.81,1899.72,600.22,612.61,35.93,0000 0000 0000 0000 000000
2016-02-01 09:59:44,0.21,7.84,0.00,14.81,19.04,22.95,15.03,51.06,1015.64,2063.96,1574.86,1676.67,1898.47,600.03,612.54,35.98,0000 0000 0000 0000 000000
2016-02-01 10:04:45,0.19,7.85,0.00,14.83,19.04,22.89,15.07,51.19,1015.64,2063.94,1573.44,1675.54,1897.13,600.07,612.42,36.03,0000 0000 0000 0000 000000
2016-02-01 10:09:47,0.22,7.86,0.00,14.82,19.04,22.93,15.10,51.00,1015.64,2063.95,1571.81,1674.40,1895.82,599.92,612.31,36.08,0000 0000 0000 0000 000000
2016-02-01 10:14:48,0.21,7.88,0.00,14.82,19.04,22.94,15.03,51.13,1015.64,2063.96,1570.19,1673.18,1894.44,599.82,612.15,36.13,0000 0000 0000 0000 000000
2016-02-01 10:19:49,0.19,7.89,0.00,14.82,19.04,22.94,15.05,51.06,1015.64,2063.95,1568.74,1672.07,1893.20,599.99,612.33,36.18,0000 0000 0000 0000 000000
2016-02-01 10:24:51,0.19,7.90,0.00,14.83,19.04,22.94,15.14,51.09,1015.64,2063.97,1567.44,1670.99,1891.93,600.22,612.60,36.23,0000 0000 0000 0000 000000
2016-02-01 10:29:52,0.23,7.91,0.00,14.81,19.04,22.97,15.09,51.11,1015.64,2063.97,1565.90,1669.85,1890.63,599.97,612.29,36.28,0000 0000 0000 0000 000000
2016-02-01 10:34:53,0.20,7.92,0.00,14.80,19.04,22.91,15.09,51.11,1015.64,2063.97,1564.43,1668.74,1889.38,599.93,612.35,36.34,0000 0000 0000 0000 000000
2016-02-01 10:39:55,0.20,7.93,0.00,14.82,19.04,22.92,15.04,51.07,1015.64,2063.95,1562.92,1667.58,1888.08,599.97,612.36,36.39,0000 0000 0000 0000 000000
2016-02-01 10:44:56,0.22,7.94,0.00,14.81,19.04,22.91,15.13,51.23,1015.66,2063.98,1561.44,1666.48,1886.74,600.00,612.38,36.44,0000 0000 0000 0000 000000
2016-02-01 10:49:58,0.20,7.95,0.00,14.79,19.04,22.94,15.05,51.20,1015.66,2063.95,1559.91,1665.36,1885.48,600.21,612.63,36.49,0000 0000 0000 0000 000000
2016-02-01 10:54:59,0.19,7.96,0.00,14.80,19.04,22.95,15.01,51.03,1015.68,2063.95,1558.51,1664.30,1884.23,599.69,612.19,36.54,0000 0000 0000 0000 000000
2016-02-01 11:00:00,0.16,7.97,0.00,14.81,19.04,22.96,15.05,51.17,1015.68,2063.92,1557.24,1663.27,1883.00,600.16,612.52,36.59,0000 0000 0000 0000 000000
2016-02-01 11:05:02,0.18,7.98,0.00,14.78,19.04,22.95,14.99,51.10,1015.69,2063.90,1555.98,1662.33,1881.80,599.98,612.39,36.64,0000 0000 0000 0000 000000
2016-02-01 11:10:03,0.20,7.99,0.00,14.78,19.04,22.91,15.11,51.09,1015.83,2063.88,1554.61,1661.32,1880.59,599.99,612.57,36.69,0000 0000 0000 0000 000000
2016-02-01 11:15:04,0.21,8.00,0.00,14.75,19.04,22.93,15.14,51.22,1016.03,2063.90,1552.97,1660.13,1879.35,600.23,612.86,36.74,0000 0000 0000 0000 000000
2016-02-01 11:20:05,0.20,8.01,0.00,14.76,19.02,22.94,15.10,51.19,1015.99,2063.80,1551.38,1658.96,1877.98,599.95,612.81,36.79,0000 0000 0000 0000 000000
2016-02-01 11:25:07,0.25,8.02,0.00,14.79,19.02,22.91,15.06,51.17,1016.12,2063.89,1549.77,1657.79,1876.66,600.21,612.96,36.84,0000 0000 0000 0000 000000
2016-02-01 11:30:08,0.22,8.03,0.00,14.79,19.02,22.97,15.03,51.34,1016.12,2063.95,1548.19,1656.66,1875.43,600.17,612.91,36.89,0000 0000 0000 0000 000000
2016-02-01 11:35:09,0.22,8.04,0.00,14.79,19.02,22.92,15.07,51.39,1016.13,2063.96,1546.58,1655.55,1874.08,600.12,612.76,36.94,0000 0000 0000 0000 000000
2016-02-01 11:40:11,0.24,8.06,0.00,14.85,19.02,22.92,15.04,51.34,1016.13,2063.98,1544.81,1654.29,1872.69,599.67,612.17,36.99,0000 0000 0000 0000 000000
2016-02-01 11:45:12,0.20,8.07,0.00,14.84,19.04,22.92,15.07,51.37,1016.15,2063.98,1543.27,1653.14,1871.43,599.96,612.63,37.04,0000 0000 0000 0000 000000
2016-02-01 11:50:14,0.16,8.08,0.00,14.82,19.04,22.94,15.00,51.23,1016.19,2063.97,1542.07,1652.07,1870.25,599.83,612.53,37.09,0000 0000 0000 0000 000000
2016-02-01 11:55:15,0.18,8.08,0.00,14.83,19.04,22.94,15.05,51.33,1016.25,2063.94,1540.95,1651.14,1869.06,599.92,612.76,37.14,0000 0000 0000 0000 000000
2016-02-01 12:00:16,0.19,8.09,0.00,14.82,19.06,22.97,15.07,51.38,1016.23,2063.86,1539.57,1650.03,1867.76,600.00,612.72,37.19,0000 0000 0000 0000 000000
2016-02-01 12:05:18,0.19,8.10,0.00,14.82,19.07,22.99,15.08,51.31,1016.19,2063.71,1538.14,1648.94,1866.53,600.11,612.82,37.24,0000 0000 0000 0000 000000
2016-02-01 12:10:19,0.18,8.11,0.00,14.86,19.07,22.98,15.07,51.40,1016.16,2063.67,1536.74,1647.91,1865.35,600.05,612.64,37.30,0000 0000 0000 0000 000000
2016-02-01 12:15:20,0.15,8.12,0.00,14.85,19.07,22.97,15.01,51.22,1016.15,2063.33,1535.50,1646.82,1864.11,600.02,612.52,37.35,0000 0000 0000 0000 000000
2016-02-01 12:20:21,0.19,8.13,0.00,14.85,19.07,23.01,15.07,51.30,1016.18,2063.28,1534.32,1645.79,1862.86,600.20,612.87,37.40,0000 0000 0000 0000 000000
2016-02-01 12:25:23,0.21,8.14,0.00,14.83,19.07,22.98,15.09,51.39,1016.21,2063.24,1532.81,1644.71,1861.65,600.14,612.81,37.45,0000 0000 0000 0000 000000
2016-02-01 12:30:24,0.19,8.15,0.00,14.81,19.07,22.96,15.09,51.26,1016.19,2063.19,1531.41,1643.66,1860.48,600.38,613.13,37.50,0000 0000 0000 0000 000000
2016-02-01 12:35:26,0.19,8.16,0.00,14.78,19.07,22.96,15.11,51.11,1016.28,2063.26,1530.09,1642.66,1859.37,599.95,612.89,37.55,0000 0000 0000 0000 000000
2016-02-01 12:40:27,0.20,8.17,0.00,14.79,19.06,22.97,15.10,51.14,1016.22,2063.25,1528.68,1641.64,1858.19,600.21,612.92,37.60,0000 0000 0000 0000 000000
2016-02-01 12:45:28,0.20,8.18,0.00,14.81,19.04,22.92,15.04,51.10,1016.20,2063.40,1527.35,1640.66,1857.03,599.89,612.63,37.65,0000 0000 0000 0000 000000
2016-02-01 12:50:29,0.18,8.19,0.00,14.84,19.04,23.01,15.10,51.17,1016.19,2063.27,1525.86,1639.65,1855.85,600.10,612.81,37.70,0000 0000 0000 0000 000000
2016-02-01 12:55:31,0.20,8.20,0.00,14.83,19.04,22.93,14.95,51.10,1016.29,2063.29,1524.54,1638.61,1854.82,599.60,612.30,37.75,0000 0000 0000 0000 000000